Pagrindinis puslapis
METAR-TAF:

METAR-TAF

Oro uostai :

Gage, Oklahoma, Jungtinės Amerikos Valstijos

platuma: 36-17-48N, ilguma: 099-46-08W, Aukštis: 677 m

Dabartinis oras

Ataskaita buvo paskelbta 1 valandą ir 3 minutes, ne 09:53 UTC
Ramus vėjas
Temperatūra 10°C
Drėgmė 62%
Slėgis 1022 hPa
Matomumas: 16.1 km
Giedras dangus

METAR: KGAG 020953Z AUTO 00000KT 10SM CLR 10/03 A3018 RMK AO2 SLP199 T01000028

Laikas: 05:56 (10:56 UTC)


TAF: trūkstamas

Orai ataskaitas ir orų prognozės (METAR, TAF).

turimą stotys yra geltonos ir raudonos taškus žemėlapyje.

Perkelti pele per norėdami pamatyti stoties vardą.

Tada spustelėkite, norėdami matyti oro stebėjimo ir prognozės.

Norėdami pakeisti žemėlapį: spustelėkite ant žalios mygtukų su juodo kryžiaus žemyn,; žalią mygtuką su brūkšneliu, jei norite nutolinti; arba žalių rodyklių gretimoms žemėlapius.


METAR-TAF: